sat.trackr.live / text

‹ back to catalog

STARLINK-34316

NORAD 64707 · 2025-142M

PAYLOAD ACTIVE UNKNOWN

§ Identity

Operator
Country
US
Launch date
2025-06-28
Launch site
AFWTR
Launch vehicle
Mass (kg)
RCS (m²)

Purposes: comms

External: N2YO · Heavens-Above · Gunter

§ Orbital elements

Epoch: 2026-05-25T05:00:22.545792Z

Period
96.11 min
Inclination
69.9999°
Eccentricity
0.0004375
Mean motion
14.98334817 rev/d
Perigee alt
569.0 km
Apogee alt
575.1 km
Semi-major
6,950.2 km
B*
2.4211e-4
RAAN
121.4810°
Arg perigee
261.6834°
Mean anomaly
98.3829°
Rev number
5,111

§ Raw data

STARLINK-343161 64707U 25142M   26145.20859428  .00002797  00000+0  24211-3 0  99912 64707  69.9999 121.4810 0004375 261.6834  98.3829 14.98334817 51118

JSON: /api/v1/satellites/64707 · /tle

For live sub-satellite position, see the globe view (requires WebGL).

§ Visibility from observer

Set your observer location to see the next 7 days of passes ≥ 10°. The values pass through the URL so the page stays shareable.

No JS? Fill the form by hand. The geolocation button needs JavaScript.